Hourly Data Report for October 25, 2014

All times are specified in Local Standard Time (LST). Add 1 hour to adjust for Daylight Saving Time where and when it is observed.

FREDERICTON
NEW BRUNSWICK

45°52'08.000" N
66°32'14.000" W
20.70 m
8101505
71700
YFC

Download Data

Hourly Data (October 2014)
Hourly Data Report for October 25, 2014
Temp Definition
°C
Dew Point Temp Definition
°C
Rel Hum Definition
%
Wind Dir Definition
10's deg

Wind Spd Definition
km/h
Visibility Definition
km
Stn Press Definition
kPa
Hmdx Definition


Wind Chill Definition


Weather Definition


TIME
00:00 Legend Double Dagger 5.6 5.3 98 33 13 4.0 99.96     Rain,Fog
01:00 Legend Double Dagger 5.9 5.6 98 33 15 9.7 99.94     Rain,Fog
02:00 Legend Double Dagger 5.9 5.6 98 33 11 4.8 99.95     Rain,Fog
03:00 Legend Double Dagger 6.0 5.7 98 33 13 8.1 99.92     Rain,Fog
04:00 Legend Double Dagger 6.0 5.6 97 34 13 8.1 99.91     Rain,Fog
05:00 Legend Double Dagger 6.0 5.6 97 31 8 8.1 99.91     Fog
06:00 Legend Double Dagger 6.0 5.6 97 32 15 4.0 99.95     Rain,Fog
07:00 Legend Double Dagger 5.9 5.6 98 32 15 6.4 99.97     Fog
08:00 Legend Double Dagger 6.0 5.7 98 31 11 4.8 100.01     Fog
09:00 Legend Double Dagger 6.3 5.9 97 32 17 6.4 99.99     Fog
10:00 Legend Double Dagger 6.8 6.1 95 33 13 16.1 100.00     LegendNANA
11:00 Legend Double Dagger 7.2 6.0 92 34 15 12.9 99.97     LegendNANA
12:00 Legend Double Dagger 7.2 6.3 94 33 11 6.4 99.96     Fog
13:00 Legend Double Dagger 7.4 6.5 94 35 15 6.4 99.90     Fog
14:00 Legend Double Dagger 7.8 6.6 92 35 15 8.1 99.87     Rain,Fog
15:00 Legend Double Dagger 7.4 6.3 92 35 8 12.9 99.87     LegendNANA
16:00 Legend Double Dagger 7.9 6.4 90 34 8 16.1 99.89     LegendNANA
17:00 Legend Double Dagger 6.9 6.2 95 36 11 4.8 99.90     Rain,Fog
18:00 Legend Double Dagger 6.6 6.3 98 4 4 16.1 99.88     LegendNANA
19:00 Legend Double Dagger 6.5 5.8 95 6 8 16.1 99.88     LegendNANA
20:00 Legend Double Dagger 6.4 5.8 96 4 5 16.1 99.90     LegendNANA
21:00 Legend Double Dagger 6.0 5.4 96 5 8 16.1 99.87     LegendNANA
22:00 Legend Double Dagger 5.2 4.8 97 6 13 16.1 99.79     LegendNANA
23:00 Legend Double Dagger 5.4 4.8 96 10 8 16.1 99.74     LegendNANA

Notes on Data Quality.

Legend

  • E = Estimated
  • M = Missing
  • NA = Not Available
  • ‡ = Partner data that is not subject to review by the National Climate Archives
Date modified: